EW6336 Weather Reports


time (UTC)temp
C
wind
direction
speed
KPH
gust
KPH
rain 1hr
cm
rain 24hr
cm
rain mn
cm
humidity
%
barometer
mb
20260507171516 19 158 4.8 14.5 0.00 0.00 0.00 72 1010.2
20260507170516 19 203 4.8 12.9 0.00 0.00 0.00 70 1010.1
20260507165516 20 180 4.8 11.3 0.00 0.00 0.00 69 1010.1
20260507164517 19 203 4.8 11.3 0.00 0.00 0.00 67 1010.1
20260507163517 20 158 8.0 16.1 0.00 0.00 0.00 64 1010.1
20260507162517 20 158 6.4 14.5 0.00 0.00 0.00 64 1010.0
20260507161517 20 225 8.0 19.3 0.00 0.00 0.00 68 1009.8
20260507160516 20 180 6.4 12.9 0.00 0.00 0.00 72 1009.7
20260507155536 20 225 6.4 12.9 0.00 0.00 0.00 72 1009.8
20260507154516 20 225 6.4 20.9 0.00 0.00 0.00 71 1009.7
20260507153516 20 203 6.4 16.1 0.00 0.00 0.00 71 1009.7
20260507152556 21 248 6.4 16.1 0.00 0.00 0.00 71 1009.8
20260507151516 21 248 6.4 14.5 0.00 0.00 0.00 71 1009.7
20260507150516 21 270 6.4 14.5 0.00 0.00 0.00 68 1009.7
20260507145516 21 225 4.8 11.3 0.00 0.00 0.00 68 1009.6
20260507144516 21 180 6.4 17.7 0.00 0.00 0.00 65 1009.7
20260507143536 21 158 6.4 17.7 0.00 0.00 0.00 65 1009.8
20260507142536 21 158 4.8 12.9 0.00 0.00 0.00 62 1009.8
20260507141616 20 0 3.2 8.0 0.00 0.00 0.00 62 1009.9
20260507140516 20 135 4.8 11.3 0.00 0.00 0.00 62 1010.1
20260507135516 20 180 3.2 9.7 0.00 0.00 0.00 69 1010.2
20260507134516 20 248 4.8 12.9 0.00 0.00 0.00 69 1010.3
20260507133516 20 248 4.8 11.3 0.00 0.00 0.00 70 1010.3
20260507132516 20 225 4.8 9.7 0.00 0.00 0.00 73 1010.3
20260507131516 19 225 4.8 9.7 0.00 0.00 0.00 74 1010.3
20260507130516 19 180 6.4 14.5 0.00 0.00 0.00 74 1010.3
20260507125516 19 248 4.8 12.9 0.00 0.00 0.00 75 1010.4
20260507124536 20 225 9.7 17.7 0.00 0.00 0.00 72 1010.5
20260507123516 20 158 6.4 16.1 0.00 0.00 0.00 74 1010.6
20260507122536 19 180 9.7 20.9 0.00 0.00 0.00 74 1010.7
20260507121516 20 248 8.0 22.5 0.00 0.00 0.00 73 1010.7
20260507120516 19 248 8.0 14.5 0.00 0.00 0.00 74 1010.8
20260507115556 19 180 9.7 24.1 0.00 0.00 0.00 73 1010.9
20260507114516 19 225 11.3 20.9 0.00 0.00 0.00 74 1011.0
20260507113536 20 203 8.0 16.1 0.00 0.00 0.00 72 1011.0
20260507112516 20 225 6.4 11.3 0.00 0.00 0.00 71 1011.1
20260507111556 19 248 4.8 12.9 0.00 0.00 0.00 71 1011.0
20260507110516 20 225 8.0 16.1 0.00 0.00 0.00 71 1011.0
20260507105516 20 203 6.4 14.5 0.00 0.00 0.00 70 1010.8
20260507104516 20 180 8.0 19.3 0.00 0.00 0.00 68 1010.9
20260507103515 20 203 8.0 24.1 0.00 0.00 0.00 66 1010.8
20260507102515 21 203 8.0 17.7 0.00 0.00 0.00 62 1010.7
20260507101516 21 135 11.3 22.5 0.00 0.00 0.00 59 1010.8
20260507100656 21 135 12.9 19.3 0.00 0.00 0.00 58 1010.8
20260507095515 21 135 4.8 8.0 0.00 0.00 0.00 58 1010.8
20260507094516 21 135 11.3 22.5 0.00 0.00 0.00 57 1010.8
20260507093516 21 113 6.4 14.5 0.00 0.00 0.00 60 1010.8
20260507092535 21 158 8.0 17.7 0.00 0.00 0.00 59 1010.8
20260507091515 21 135 4.8 11.3 0.00 0.00 0.00 59 1010.8
20260507090615 21 90 4.8 11.3 0.00 0.00 0.00 59 1010.9
20260507085535 21 135 6.4 12.9 0.00 0.00 0.00 58 1011.0
20260507084515 20 113 4.8 9.7 0.00 0.00 0.00 58 1011.0
20260507083515 20 113 6.4 12.9 0.00 0.00 0.00 58 1010.9
20260507082515 20 90 4.8 9.7 0.00 0.00 0.00 57 1010.9
20260507081515 21 135 6.4 14.5 0.00 0.00 0.00 54 1010.8
20260507080515 21 23 3.2 4.8 0.00 0.00 0.00 54 1010.8
20260507075517 20 23 3.2 6.4 0.00 0.00 0.00 55 1010.9
20260507075242 20 338 4.8 12.9 0.00 0.00 0.00 55 1010.9
20260507074233 20 113 4.8 9.7 0.00 0.00 0.00 56 1010.9
20260507073302 20 338 4.8 14.5 0.00 0.00 0.00 57 1010.9
20260507072244 20 0.0 4.8 0.00 0.00 0.00 60 1010.8
20260507071244 19 23 1.6 4.8 0.00 0.00 0.00 63 1010.7
20260507070304 18 315 3.2 8.0 0.00 0.00 0.00 65 1010.7
20260507065306 18 45 1.6 6.4 0.00 0.00 0.00 67 1010.7
20260507064244 17 0 1.6 3.2 0.00 0.00 0.00 69 1010.7
20260507063244 17 0.0 3.2 0.00 0.00 0.00 69 1010.7
20260507062244 17 0.0 1.6 0.00 0.00 0.00 70 1010.6
20260507061244 17 338 3.2 6.4 0.00 0.00 0.00 70 1010.5
20260507060244 16 315 1.6 4.8 0.00 0.00 0.00 72 1010.4
20260507055244 16 315 1.6 4.8 0.00 0.00 0.00 74 1010.4
20260507054244 16 0.0 3.2 0.00 0.00 0.00 76 1010.2
20260507053244 16 315 3.2 6.4 0.00 0.00 0.00 76 1010.1
20260507052244 16 0.0 4.8 0.00 0.00 0.00 76 1010.2
20260507051244 16 0.0 3.2 0.00 0.00 0.00 76 1010.1
20260507050244 16 0.0 3.2 0.00 0.00 0.00 76 1010.1
20260507045244 16 45 1.6 3.2 0.00 0.00 0.00 78 1010.0
20260507044244 16 68 3.2 6.4 0.00 0.00 0.00 78 1009.9
20260507043243 17 0.0 3.2 0.00 0.00 0.00 78 1009.8
20260507042244 17 68 1.6 3.2 0.00 0.00 0.00 79 1009.7
20260507041244 17 68 1.6 4.8 0.00 0.00 0.00 78 1009.6
20260507040243 17 135 1.6 6.4 0.00 0.00 0.00 78 1009.6
20260507035243 17 135 3.2 4.8 0.00 0.00 0.00 78 1009.5
20260507034244 17 0.0 0.0 0.00 0.00 0.00 78 1009.3
20260507033303 17 0.0 0.0 0.00 0.00 0.00 78 1009.5
20260507032244 17 315 1.6 3.2 0.00 0.00 0.00 78 1009.4
20260507031304 17 315 1.6 3.2 0.00 0.00 0.00 78 1009.4
20260507030243 17 315 1.6 3.2 0.00 0.00 0.00 78 1009.4
20260507025244 17 315 1.6 4.8 0.00 0.00 0.00 78 1009.5
20260507024243 17 113 1.6 4.8 0.00 0.00 0.00 78 1009.4
20260507023244 17 135 4.8 9.7 0.00 0.00 0.00 78 1009.4
20260507022243 17 180 3.2 11.3 0.00 0.00 0.00 76 1009.5
20260507021243 18 203 4.8 11.3 0.00 0.00 0.00 75 1009.4
20260507020244 17 113 3.2 6.4 0.00 0.00 0.00 74 1009.4
20260507015243 18 113 1.6 4.8 0.00 0.00 0.00 75 1009.4
20260507014243 18 135 3.2 6.4 0.00 0.00 0.00 75 1009.6
20260507013323 18 113 4.8 9.7 0.00 0.00 0.00 75 1009.7
20260507012243 18 113 3.2 6.4 0.00 0.00 0.00 74 1009.8
20260507011404 18 113 4.8 9.7 0.00 0.00 0.00 74 1009.8
20260507010243 18 135 4.8 11.3 0.00 0.00 0.00 72 1010.0
20260507005243 18 113 8.0 14.5 0.00 0.00 0.00 71 1010.1
20260507004243 18 90 6.4 12.9 0.00 0.00 0.00 70 1010.0
20260507003243 18 113 6.4 11.3 0.00 0.00 0.00 70 1009.9
20260507002243 18 135 3.2 6.4 0.00 0.00 0.00 69 1009.8
20260507001243 18 0.0 1.6 0.00 0.00 0.00 70 1010.0
20260507000243 18 135 3.2 6.4 0.00 0.00 0.00 71 1010.1
20260506235242 18 135 3.2 6.4 0.00 0.00 0.00 71 1010.1
20260506234242 18 135 1.6 4.8 0.00 0.00 0.00 71 1010.1
20260506233303 18 135 3.2 4.8 0.00 0.00 0.00 72 1010.1
20260506232306 18 90 1.6 4.8 0.00 0.00 0.00 71 1010.2
20260506231242 18 45 1.6 3.2 0.00 0.00 0.00 71 1010.4
20260506230242 18 45 3.2 6.4 0.00 0.00 0.00 71 1010.4
20260506225242 18 0.0 3.2 0.00 0.00 0.00 72 1010.3
20260506224242 18 0.0 0.0 0.00 0.00 0.00 72 1010.4
20260506223242 18 0.0 0.0 0.00 0.00 0.00 73 1010.6
20260506222242 18 0.0 3.2 0.00 0.00 0.00 73 1010.6
20260506221242 18 90 3.2 4.8 0.00 0.00 0.00 73 1010.7
20260506220242 18 90 3.2 4.8 0.00 0.00 0.00 72 1010.8
20260506215242 18 45 1.6 4.8 0.00 0.00 0.00 72 1010.8
20260506214242 18 0.0 3.2 0.00 0.00 0.00 72 1011.0
20260506213244 18 68 1.6 3.2 0.00 0.00 0.00 73 1010.9
20260506212244 18 113 3.2 9.7 0.00 0.00 0.00 73 1011.0
20260506211244 18 45 1.6 3.2 0.00 0.00 0.00 73 1010.9
20260506210517 18 45 1.6 4.8 0.00 0.00 0.00 74 1010.8
20260506210242 18 90 1.6 6.4 0.00 0.00 0.00 75 1010.7
20260506205537 18 23 3.2 8.0 0.00 0.00 0.00 77 1010.6
20260506204517 18 135 1.6 6.4 0.00 0.00 0.00 77 1010.6
20260506203744 18 135 1.6 3.2 0.00 0.00 0.00 77 1010.6
20260506202744 18 135 1.6 4.8 0.00 0.00 0.00 76 1010.4
20260506201744 18 135 4.8 6.4 0.00 0.00 0.00 76 1010.3
20260506200744 18 113 3.2 6.4 0.00 0.00 0.00 75 1010.2
20260506195744 18 135 1.6 6.4 0.00 0.00 0.00 75 1010.0
20260506194744 19 113 4.8 9.7 0.00 0.00 0.00 74 1009.8
20260506193744 19 113 3.2 6.4 0.00 0.00 0.00 73 1009.8
20260506192744 19 113 3.2 6.4 0.00 0.00 0.00 73 1009.8
20260506191744 19 248 1.6 4.8 0.00 0.00 0.00 73 1009.8
20260506190701 19 248 3.2 6.4 0.00 0.00 0.00 72 1009.7
20260506185744 19 248 1.6 4.8 0.00 0.00 0.00 72 1009.6
20260506184744 19 248 1.6 3.2 0.00 0.00 0.00 72 1009.6
20260506183744 19 180 1.6 4.8 0.00 0.00 0.00 71 1009.6
20260506182744 19 180 1.6 4.8 0.00 0.00 0.00 71 1009.4
20260506181744 19 248 3.2 8.0 0.00 0.00 0.00 71 1009.5
20260506180824 20 180 3.2 8.0 0.00 0.00 0.00 70 1009.6
20260506175744 20 158 4.8 11.3 0.00 0.00 0.00 69 1009.4
20260506174744 20 180 3.2 6.4 0.00 0.00 0.00 69 1009.3
20260506173743 20 158 4.8 8.0 0.00 0.00 0.00 68 1009.3
20260506172744 20 180 3.2 9.7 0.00 0.00 0.00 68 1009.2
20260506171743 20 180 6.4 11.3 0.00 0.00 0.00 67 1009.4